Regional Weather Roundup
Issued by NWS

Home | Current Version | Previous Version | Text Only | Print | Product List | Glossary Off
Versions: 1 2 3 4 5 6 7 8 9 10 11 12 13 14 15 16 17 18 19 20 21 22 23 24 25 26 27 28 29 30 31 32 33 34 35 36 37 38 39 40 41 42 43 44 45 46 47 48 49 50

000
ASUS43 KLOT 230108
RWRIL

ILLINOIS REGIONAL WEATHER ROUNDUP
NATIONAL WEATHER SERVICE CHICAGO/ROMEOVILLE IL
800 PM CDT TUE AUG 22 2017

NOTE: "FAIR" INDICATES FEW OR NO CLOUDS BELOW 12,000 FEET WITH NO
SIGNIFICANT WEATHER AND/OR OBSTRUCTIONS TO VISIBILITY.

* THESE STATIONS ARE NOT UNDER NWS QUALITY CONTROL. THEY ALSO MAY NOT
  REPORT WEATHER SUCH AS PRECIPITATION OR FOG.

ILZ001-002-007-009-015-016-024-230200-
NORTHWEST ILLINOIS

CITY           SKY/WX    TMP DP  RH WIND       PRES   REMARKS
MOLINE         CLEAR     71  51  49 NW9       30.02R
STERLING*      CLEAR     68  54  60 NW8       30.01R
SAVANNA*       CLEAR     69  52  55 NW5       30.01S
$$

ILZ003-004-008-010-011-017-018-230200-
NORTH CENTRAL ILLINOIS

CITY           SKY/WX    TMP DP  RH WIND       PRES   REMARKS
ROCKFORD       PTCLDY    68  52  56 NW9       30.00R
FREEPORT*      CLEAR     64  50  61 W5        30.02R
ROCHELLE*      CLEAR     65  52  61 NW5       30.00R
DE KALB*       CLEAR     65  53  66 NW6       29.99S
PERU*          CLEAR     64  56  76 NW7       30.00R
$$

ILZ005-006-012>014-019>023-230200-
NORTHEAST ILLINOIS

CITY           SKY/WX    TMP DP  RH WIND       PRES   REMARKS
CHICAGO-OHARE  PTCLDY    73  48  41 NW14      29.95R
CHICAGO-MIDWAY PTCLDY    74  51  44 NW15      29.95R
AURORA         CLEAR     63  56  78 W6        29.98R
LANSING*       PTCLDY    73  47  40 NW10G16   29.95R
JOLIET*        CLEAR     71  57  60 CALM      29.97R
WAUKEGAN       CLEAR     68  52  56 NW5       29.95R
DUPAGE AIRPORT CLEAR     68  52  56 NW6       29.96R
KANKAKEE*      CLEAR     69  55  59 NW7       29.97R
WHEELING       CLEAR     71  52  50 NW12      29.97R
MORRIS*        CLEAR     65  58  79 W6        29.97R
ROMEOVILLE*    CLEAR     68  51  53 NW8       29.97R
NORTHERLY ISL    N/A     74  50  42 NW7         N/A
$$

LMZ740>746-230200-
SOUTHERN LAKE MICHIGAN

STATION/POSITION SKY/WX   TEMP    WIND        PRES    VSBY  WAVE
                          AIR SEA DIR/SP/G                  HT/PER
                          (F)     (DEG/KT/KT) (MB)    (MI)  (FT/S)
SOUTHERN BUOY              72 71  350/ 19/ 21 1012.7          3/ 5
WILMETTE HARBOR            74 74  330/ 16/ 19   N/A           3/ 4
HARRISON CRIB              76     320/ 18/ 19   N/A
CALUMET HARBOR             74     300/  6/ 15 1013.5R
BURNS HARBOR               74     340/ 16/ 21 1014.2R
MICHIGAN CITY              73     330/ 20/ 22   N/A
MICHIGAN CITY 6N           74 74  340/ 16/ 19   N/A           5/ 4
ST. JOSEPH                 72 73   10/ 14/ 19 1013.5          3/ 4
$$

ILZ025>027-034>036-040-047-049-050-058-095>099-230200-
WEST-CENTRAL ILLINOIS

CITY           SKY/WX    TMP DP  RH WIND       PRES   REMARKS
QUINCY         CLEAR     67  55  65 N7        30.03R
GALESBURG*     CLEAR     65  55  68 NW5       30.04R
MACOMB*        CLEAR     66  59  77 NW5       30.05R
JACKSONVILLE*  CLEAR     67  59  76 N3        30.03R
PITTSFIELD*    CLEAR     69  59  71 NW3       30.04R
$$

ILZ028>032-037-038-041>044-048-051>054-059>061-230200-
CENTRAL ILLINOIS

CITY           SKY/WX    TMP DP  RH WIND       PRES   REMARKS
PONTIAC        CLEAR     65  61  86 NW5       30.00R
BLOOMINGTON    CLEAR     69  57  65 NW9       30.01R
DECATUR        CLEAR     72  57  59 NW12      30.00R
PEORIA         CLEAR     69  57  65 NW3       30.01R
LACON*         CLEAR     67  58  72 NW3       30.00R
LINCOLN*       CLEAR     70  60  70 CALM      30.01R
SPRINGFIELD    CLEAR     69  60  73 NW6       30.01R
TAYLORVILLE    CLEAR     68  60  75 NW6       30.01R
$$

ILZ033-039-045-046-055>057-062-063-230200-
EAST-CENTRAL ILLINOIS

CITY           SKY/WX    TMP DP  RH WIND       PRES   REMARKS
CHAMPAIGN      CLEAR     69  57  65 NW8       29.99R
RANTOUL*       CLEAR     71  61  71 NW6       29.99R
MATTOON        CLEAR     68  64  87 NW7       29.98R
PARIS*         CLEAR     68  61  78 NW3       29.99R
$$

ILZ079-100>102-230200-
SOUTHWEST ILLINOIS

CITY           SKY/WX    TMP DP  RH WIND       PRES   REMARKS
BELLEVILLE     CLEAR     76  66  70 N6        30.01R
CAHOKIA*       CLEAR     79  59  50 N14       30.00R HX  80
SPARTA*        CLEAR     76  65  70 NW3       30.01S
$$

ILZ064>066-069>071-074>076-080>082-084>086-088>090-092>094-230200-
SOUTH-CENTRAL ILLINOIS

CITY           SKY/WX    TMP DP  RH WIND       PRES   REMARKS
CARBONDALE     CLEAR     73  69  87 NW3       29.99S
CAIRO*         CLEAR     74  69  82 NW5       29.98S
EFFINGHAM*     CLEAR     73  63  71 NW7       30.01R
MARION         CLEAR     77  70  78 CALM      30.00R
MT. VERNON       N/A     72  68  87 CALM      29.98
CENTRALIA*     CLEAR     74  67  78 NW6       29.98S
SALEM*         PTCLDY    74  65  73 NW3       29.99S
METROPOLIS*    CLEAR     76  69  79 NW5       29.99R
$$

ILZ067-068-072-073-078-083-087-091-230200-
SOUTHEAST ILLINOIS

CITY           SKY/WX    TMP DP  RH WIND       PRES   REMARKS
LAWRENCEVILLE  PTCLDY    74  67  78 NW8       29.96R
FLORA*         MOCLDY    76  67  74 NW5       29.98S
FAIRFIELD*     CLEAR     74  67  77 CALM      29.96F
HARRISBURG*    CLEAR     75  68  79 NW5       29.97S
ROBINSON*      CLEAR     72  65  78 NW8       29.97R
CARMI*         CLEAR     72  69  90 W5        29.96S
$$

ABBREVIATIONS USED IN REMARKS
   TC - TEMPERATURE IN CELSIUS
  WCI - WIND CHILL INDEX
   HX - HEAT INDEX
  VSB - VISIBILITY
$$





USA.gov is the U.S. government's official web portal to all federal, state and local government web resources and services.